Terug naar catalogus

SL-12 R/B(2)

ActiefGEO
NORAD 21041·ROCKET BODY·🇷🇺 Russia

Gelanceerd Dec 27, 1990 vanaf Baikonur Cosmodrome

Loading…

TLE

VersSource: Space-Track

Epoch: Aug 28, 2026, 02:33 UTC

1 21041U 90116D   26240.10680301 -.00000179  00000-0  00000+0 0  9995
2 21041  13.8648 340.6920 0031212 101.8855 269.8535  0.97944212127131

Volg SL-12 R/B(2) in realtime met AllMySat

Download on the App Store